sat.trackr.live / text

‹ back to catalog

STARLINK-37052

NORAD 68179 · 2026-050N

PAYLOAD ACTIVE UNKNOWN

§ Identity

Operator
Country
US
Launch date
2026-03-14
Launch site
AFETR
Launch vehicle
Mass (kg)
RCS (m²)

Purposes: comms

External: N2YO · Heavens-Above · Gunter

§ Orbital elements

Epoch: 2026-09-20T00:04:15.564288Z

Period
93.85 min
Inclination
53.1584°
Eccentricity
0.0001687
Mean motion
15.34408136 rev/d
Perigee alt
461.5 km
Apogee alt
463.8 km
Semi-major
6,840.8 km
B*
6.1197e-4
RAAN
79.9132°
Arg perigee
86.0967°
Mean anomaly
274.0228°
Rev number
3,049

§ Raw data

STARLINK-370521 68179U 26050N   26263.00295792  .00020362  00000+0  61197-3 0  99962 68179  53.1584  79.9132 0001687  86.0967 274.0228 15.34408136 30494

JSON: /api/v1/satellites/68179 · /tle

For live sub-satellite position, see the globe view (requires WebGL).

§ Visibility from observer

Set your observer location to see the next 7 days of passes ≥ 10°. The values pass through the URL so the page stays shareable.

No JS? Fill the form by hand. The geolocation button needs JavaScript.